Home > Weather > Lexington > Past weeks

Flag for U.S.A. Weather for the Past 2 Weeks in Lexington, Virginia, U.S.A.

Now
17 °F

Overcast.


Feels Like: 1 °F
Forecast: 26 / 37 °F
Wind: 21 mph from West

Location: Hot Springs / Ingalls

Current Time: Feb 9, 2016 at 5:49:16 PM

Latest Report: Feb 9, 2016 at 5:15 PM


Visibility: 7 mi

Pressure: 29.49 "Hg

Humidity: 78%

Dew point: 12 °F

Location of LexingtonLocation

Historic Weather in Lexington — Graph

°F

Lexington Temperature Yesterday

Maximum temperature yesterday: 37 °F (at 9:55 AM)
Minimum temperature yesterday: 31 °F (at 6:35 AM)
Average temperature yesterday: 33 °F

High & Low Weather Summary for the Past Weeks

 TemperatureHumidityPressure
High58 °F (Jan 31, 2:15 PM)100% (Jan 26, 12:55 PM)30.26 "Hg (Jan 26, 12:55 PM)
Low18 °F (Feb 9, 3:55 PM)19% (Jan 25, 4:15 PM)29.43 "Hg (Feb 9, 1:35 PM)
Average35 °F70%29.94 "Hg
* Reported Jan 25 3:15 PM — Feb 9 3:55 PM, Lexington, Weather by CustomWeather, © 2016

Note: Actual official high and low records may vary slightly from our data, if they occured in-between our weather recording intervals... More about our weather records

Advertising

Lexington Weather History for the Previous 24 Hours

 ConditionsComfort  
Time TempWeatherWind HumidityBarometerVisibility
3:55 PM
Tue, Feb 9
18 °FLight snow. Overcast.17 mph78%29.45 "Hg4 mi
3:35 PM19 °FOvercast.18 mph80%29.45 "Hg7 mi
3:15 PM19 °FMostly cloudy.20 mph79%29.44 "Hg7 mi
2:55 PM20 °FOvercast.22 mph74%29.44 "Hg5 mi
2:35 PM20 °FOvercast.20 mph75%29.43 "Hg5 mi
2:15 PM21 °FOvercast.17 mph76%29.43 "Hg7 mi
1:55 PM21 °FLight snow. Overcast.20 mph75%29.43 "Hg4 mi
1:35 PM21 °FOvercast.18 mph79%29.43 "Hg10 mi
1:15 PM21 °FLight snow. Overcast.18 mph81%29.44 "Hg4 mi
12:55 PM21 °FLight snow. Overcast.18 mph80%29.44 "Hg5 mi
12:35 PM22 °FMostly cloudy.17 mph80%29.45 "Hg10 mi
12:15 PM20 °FOvercast.16 mph100%29.45 "Hg10 mi
11:55 AM20 °FLight snow. Cloudy.18 mph100%29.46 "Hg4 mi
11:35 AM21 °FLight snow. Cloudy.18 mph100%29.46 "Hg2 mi
10:35 AM20 °FIce fog.16 mph100%29.47 "Hg3 mi
10:15 AM20 °FIce fog.15 mph100%29.47 "Hg3 mi
9:35 AM20 °FIce fog.15 mph100%29.47 "Hg2 mi
9:15 AM20 °FLight snow. Mostly cloudy.15 mph100%29.47 "Hg2 mi
8:35 AM21 °FLight snow. Mostly cloudy.16 mph100%29.46 "Hg3 mi
8:15 AM22 °FLight snow. Low clouds.16 mph100%29.46 "Hg1 mi
7:55 AM22 °FLight snow. Low clouds.16 mph100%29.45 "Hg1 mi
7:15 AM24 °FLight snow. Low clouds.14 mph100%29.44 "Hg1 mi
5:15 PM
Mon, Feb 8
32 °FLight snow. Mostly cloudy.No wind100%29.53 "Hg10 mi
Weather by CustomWeather, © 2016

See weather overviewHow to use our weather pages